Погода в Преображеновке

Россия / Липецкая область     52°57′33″N   40°04′32″E
темп.,
°C
ветер,
м/с
пор.,
м/с
влажн.,
%
обл.,
%
осадки,
мм/ч
давл.,
гПа
погр.,
м
18 апреля, вс
вс1800:00+6ююз119498 0.1 101916
03:00+5вюв11955 0.1 101911
06:00+5юв24965 0.0 1019102
09:00+9ююв236810 0.0 1018634
12:00+12ююв235292 0.2 10181691
15:00+12ю2350100 0.4 10181418
18:00+11ююв1162100 0.4 101838
21:00+8вюв2372100 0.6 101944
19 апреля, пн
пн1900:00+8вюв2275100 0.0 101826
03:00+7в1177100 0.1 101810
06:00+7всв3691100 0.4 1018221
09:00+9всв457898 1.2 1018676
12:00+9всв4576100 0.8 1018626
15:00+10св5577100 0.9 1018886
18:00+9в4781100 0.3 1018783
21:00+7всв51087100 0.3 1019676
20 апреля, вт
вт2000:00+6всв4990100 0.0 1019582
03:00+7в3893100 0.0 1018437
06:00+7в4994100 0.1 1017530
09:00+8в5985100 0.1 1018691
12:00+8в5982100 0.0 1017754
15:00+7в61381100 0.3 1014861
18:00+5в71691100 6.3 1011964
21:00+6вюв92290100 16.4 10061361
21 апреля, ср
ср2100:00+8вюв81892100 8.6 10031053
03:00+10юв71393100 9.1 1001921
06:00+9ююв6138783 0.8 1001810
09:00+8ююв61292100 1.4 10031326
12:00+5зюз51193100 1.3 1006568
15:00+6зюз51081100 1.3 10101027
18:00+7юз41177100 0.1 10141398
21:00+7юз4979100 0.2 1017514
22 апреля, чт
чт2200:00+6юз3883100 0.0 1018337
03:00+6ююз2885100 0.0 1020267
06:00+5ю2586100 0.0 1021131
09:00+9ююз366699 0.0 1022719
12:00+12юз455624 0.1 10221574
15:00+13ююз345496 0.2 10221351
18:00+12ю366357 0.1 1023424
21:00+9ю277492 0.1 1024195